TimeMST,TemperatureF,Dew PointF,Humidity,Sea Level PressureIn,VisibilityMPH,Wind Direction,Wind SpeedMPH,Gust SpeedMPH,PrecipitationIn,Events,Conditions,WindDirDegrees,DateUTC
5:00 AM,-10,-15,68,30.10,15,NNW,3.5,,,,Scattered Clouds,330,2012-12-27 12:00:00
5:00 AM,-9.4,-14.8,77,30.10,15.0,NNW,4.6,-,N/A,,Partly Cloudy,340,2012-12-27 12:00:00
6:00 AM,-11.2,-16.6,77,30.10,15.0,NW,6.9,-,N/A,,Partly Cloudy,320,2012-12-27 13:00:00
7:00 AM,-5.8,-9.4,84,30.09,15.0,NW,5.8,-,N/A,,Partly Cloudy,310,2012-12-27 14:00:00
8:00 AM,-4.0,-7.6,85,30.10,15.0,West,5.8,-,N/A,,Partly Cloudy,280,2012-12-27 15:00:00
9:00 AM,-2.2,-7.6,78,30.11,30.0,NNW,4.6,-,N/A,,Partly Cloudy,330,2012-12-27 16:00:00
10:00 AM,-2.2,-7.6,78,30.13,30.0,NW,3.5,-,N/A,,Scattered Clouds,310,2012-12-27 17:00:00
11:00 AM,5,2,79,30.12,28,West,3.5,,,,Mostly Cloudy,280,2012-12-27 18:00:00
11:00 AM,5.0,1.4,85,30.12,30.0,WNW,3.5,-,N/A,,Mostly Cloudy,290,2012-12-27 18:00:00
12:00 PM,8.6,5.0,85,30.10,30.0,Calm,Calm,-,N/A,,Partly Cloudy,0,2012-12-27 19:00:00
1:00 PM,8.6,5.0,85,30.09,30.0,SW,2.3,-,N/A,,Partly Cloudy,230,2012-12-27 20:00:00
2:00 PM,8.6,5.0,85,30.08,30.0,South,3.5,-,N/A,,Partly Cloudy,180,2012-12-27 21:00:00
3:00 PM,8.6,5.0,85,30.08,30.0,South,3.5,-,N/A,,Partly Cloudy,180,2012-12-27 22:00:00
4:00 PM,8.6,5.0,85,30.10,30.0,Calm,Calm,-,N/A,,Clear,0,2012-12-27 23:00:00
5:00 PM,4,0,77,30.12,28,Calm,Calm,,,,Scattered Clouds,,2012-12-28 00:00:00
5:00 PM,3.2,-0.4,85,30.12,30.0,Calm,Calm,-,N/A,,Partly Cloudy,0,2012-12-28 00:00:00
5:47 PM,1.4,-2.2,85,30.14,15.0,NW,2.3,-,N/A,Fog,Patches of Fog,320,2012-12-28 00:47:00
6:00 PM,-0.4,-4.0,85,30.15,15.0,WNW,4.6,-,N/A,Fog,Ice Crystals,300,2012-12-28 01:00:00
7:00 PM,3.2,-0.4,85,30.12,15.0,West,2.3,-,N/A,,Clear,260,2012-12-28 02:00:00
8:00 PM,-4.0,-9.4,78,30.14,15.0,NW,3.5,-,N/A,,Clear,320,2012-12-28 03:00:00
9:00 PM,-4.0,-9.4,78,30.13,15.0,NW,4.6,-,N/A,,Clear,320,2012-12-28 04:00:00
10:00 PM,-5.8,-11.2,77,29.80,15.0,NNW,6.9,-,N/A,,Clear,330,2012-12-28 05:00:00